Regional Weather Roundup
Issued by NWS Midland/Odessa, TX

Home | Current Version | Previous Version | Text Only | Print | Product List | Glossary On
Versions: 1 2 3 4 5 6 7 8 9 10 11 12 13 14 15 16 17 18 19 20 21 22 23 24 25 26 27 28 29 30 31 32 33 34 35 36 37 38 39 40 41 42 43 44 45 46 47 48 49 50
000
ASUS44 KMAF 160710
RWRMAF
MIDLAND AREA WEATHER ROUNDUP
NATIONAL WEATHER SERVICE MIDLAND TX
200 AM CDT TUE SEP 16 2014

...IN SOUTHWEST TEXAS AND SOUTHEAST NEW MEXICO...

CITY           SKY/WX    TMP DP  RH WIND       PRES   REMARKS
ALPINE         MOCLDY    66  62  88 CALM      30.31F
ANDREWS        CLOUDY    68  65  90 CALM      30.22F
ARTESIA        NOT AVBL
BIG SPRING     CLOUDY    74  67  78 SE3       30.21F
CARLSBAD       LGT RAIN  70  70 100 CALM      30.21F
DRYDEN           N/A     74  67  78 N5        30.14S
FORT STOCKTON  MOCLDY    69  65  86 CALM      30.19F
GUAD PASS      CLOUDY    61  61 100 NE26      30.31F
HOBBS          MOCLDY    66  66 100 CALM      30.26S
MARFA          MOCLDY    64  63  94 E6        30.29F
MIDLAND AIRPK  NOT AVBL
MIDLAND INTL   CLOUDY    72  66  81 E3        30.20S
ODESSA         LGT RAIN  70  65  84 SE5       30.21F
PECOS          CLOUDY    70  65  83 NE5       30.18S
PRESIDIO       FAIR      74  64  69 N10       30.14S
SEMINOLE       CLOUDY    68  65  91 CALM      30.24F
SNYDER         CLOUDY    73  66  80 CALM      30.20S
WINK           CLOUDY    71  67  87 NE5       30.18F
$$
...OTHER STATIONS IN TEXAS...

CITY           SKY/WX    TMP DP  RH WIND       PRES   REMARKS
ABILENE        PTCLDY    72  66  81 S8        30.16S
AMARILLO       MOCLDY    58  57  97 N9        30.29S
AUSTIN         CLOUDY    77  73  87 NE3       30.09S
BROWNSVILLE    MOCLDY    76  76 100 CALM      30.02S FOG
CORPUS CHRISTI MOCLDY    80  77  90 N8        30.01F
DALLAS FTW     CLOUDY    77  69  76 S3        30.11F
DEL RIO        MOCLDY    75  70  84 CALM      30.09F
EL PASO        LGT RAIN  70  65  84 N5        30.20S
HOUSTON INT    CLOUDY    79  76  90 N5        30.06F
LUBBOCK        CLOUDY    69  65  86 NE3       30.23S
SAN ANGELO     CLOUDY    72  69  90 NE3       30.16S
SAN ANTONIO    CLOUDY    80  70  71 NE8       30.09S
WACO           CLOUDY    75  69  81 CALM      30.11F
WICHITA FALLS  NOT AVBL
$$
...OTHER LOCATIONS IN NEW MEXICO...

CITY           SKY/WX    TMP DP  RH WIND       PRES   REMARKS
ALAMAGORDO     CLOUDY    68  64  88 S3        30.23R
ALBUQUERQUE    CLOUDY    65  59  81 NW3       30.32S
CANNON AFB     PTCLDY    61  57  88 NE9       30.30F
CLOVIS           N/A     61  57  88 NE10      30.32F
HOLLOMAN AFB   MOCLDY    70  64  79 CALM      30.21R
ROSWELL        CLOUDY    68  64  87 CALM      30.24S
RUIDOSO        CLOUDY    57  57 100 SE7       30.42S
SANTA FE       MOCLDY    60  52  74 SE9       30.38F
TRUTH OR CONSE LGT RAIN  71  59  65 SW7       30.24S
TUCUMCARI      CLOUDY    62  56  80 NE8       30.30F
$$


USA.gov is the U.S. government's official web portal to all federal, state and local government web resources and services.